User: anonymous   Login
Location: Unspecified
(0.0000°N, 0.0000°E)
Time: 22:56:27
(UTC+00:00)
Language:

MOZHAYETS 4 - Orbit

View from above orbital plane
View from above orbital plane
View from above satellite
View from above satellite

Ground track
Ground track

The orbit data is extracted from the following two-line orbital elements,

1 27939U 03042A   18019.87846306  .00000062  00000-0  19687-4 0  9993
2 27939  97.9667 163.0560 0011702 257.3417 261.0941 14.66650171765072
Epoch (UTC): 19 January 2018 21:04:59
Eccentricity: 0.0011702
inclination: 97.9667°
perigee height: 663 km
apogee height: 680 km
right ascension of ascending node: 163.0560°
argument of perigee: 257.3417°
revolutions per day: 14.66650171
mean anomaly at epoch: 261.0941°
orbit number at epoch: 76507

The dashed part of the orbit path shows where the satellite is in the earth's shadow,  

DLR